EW3836 Weather Reports


Display with metric or nautical units.
time (UTC)temp
F
wind
direction
speed
MPH
gust
MPH
rain 1hr
in
rain 24hr
in
rain mn
in
humidity
%
barometer
mb
20260904193021 58 153 0.0 0.0 0.00 0.12 0.00 56 1012.6
20260904191518 57 66 0.0 0.0 0.00 0.12 0.00 54 1012.6
20260904190015 58 133 0.0 0.0 0.00 0.12 0.00 54 1012.6
20260904184521 60 15 0.0 0.0 0.00 0.12 0.00 57 1012.6
20260904183013 60 55 0.0 0.0 0.00 0.12 0.00 54 1012.6
20260904181519 56 300 0.0 0.0 0.00 0.12 0.00 61 1012.7
20260904180020 60 313 0.0 0.0 0.00 0.12 0.00 57 1012.7
20260904174505 58 312 0.0 0.0 0.00 0.12 0.00 56 1012.6
20260904173000 56 217 0.0 0.0 0.00 0.12 0.00 58 1012.5
20260904171619 56 136 0.0 0.0 0.00 0.12 0.00 60 1012.4
20260904170055 55 76 0.0 0.0 0.00 0.12 0.00 62 1012.4
20260904164609 54 100 0.0 0.0 0.00 0.12 0.00 65 1012.3
20260904163049 53 119 0.0 0.0 0.00 0.12 0.00 66 1012.1
20260904161554 52 121 0.0 0.0 0.00 0.12 0.00 68 1012.0
20260904160041 51 113 0.0 0.0 0.00 0.12 0.00 71 1012.0
20260904154543 50 163 0.0 0.0 0.00 0.12 0.00 73 1012.0
20260904153040 49 150 0.0 0.0 0.00 0.12 0.00 75 1012.1
20260904151534 48 128 0.0 0.0 0.00 0.12 0.00 76 1012.0
20260904150029 47 158 0.0 0.0 0.00 0.12 0.00 78 1012.0
20260904144525 46 130 0.0 0.0 0.00 0.12 0.00 79 1011.8
20260904143023 45 138 0.0 0.0 0.00 0.12 0.00 81 1011.7
20260904141520 44 150 0.0 0.0 0.00 0.12 0.00 83 1011.4
20260904140017 43 162 0.0 0.0 0.00 0.12 0.00 84 1011.3
20260904134518 43 134 0.0 0.0 0.00 0.12 0.00 84 1011.2
20260904133014 43 149 0.0 0.0 0.00 0.12 0.00 85 1011.1
20260904131510 43 150 0.0 0.0 0.00 0.12 0.00 84 1010.8
20260904130010 44 143 0.0 0.0 0.00 0.12 0.00 83 1010.8
20260904124508 43 149 0.0 0.0 0.00 0.12 0.00 83 1010.6
20260904123006 43 157 0.0 0.0 0.00 0.12 0.00 84 1010.6
20260904121505 43 153 0.0 0.0 0.00 0.12 0.00 84 1010.4
20260904120001 44 149 0.0 0.0 0.00 0.12 0.00 84 1010.3
20260904114605 44 129 0.0 0.0 0.00 0.13 0.00 84 1010.1
20260904113059 44 133 0.0 0.0 0.00 0.13 0.00 83 1009.9
20260904111558 44 121 0.0 0.0 0.00 0.13 0.00 83 1009.8
20260904110055 44 153 0.0 0.0 0.00 0.13 0.00 85 1009.7
20260904104610 44 123 0.0 0.0 0.00 0.16 0.00 85 1009.7
20260904103058 44 152 0.0 0.0 0.00 0.16 0.00 86 1009.7
20260904101551 44 110 0.0 0.0 0.00 0.16 0.00 86 1009.1
20260904100105 44 103 0.0 0.0 0.00 0.16 0.00 86 1009.1
20260904094557 44 129 0.0 0.0 0.00 0.18 0.00 86 1009.2
20260904093043 44 112 0.0 0.0 0.00 0.18 0.00 86 1008.8
20260904091542 45 111 0.0 0.0 0.00 0.18 0.00 85 1008.7
20260904090038 45 156 0.0 0.0 0.00 0.18 0.00 85 1008.8
20260904084537 45 135 0.0 0.0 0.00 0.18 0.00 85 1008.8
20260904083036 44 121 0.0 0.0 0.00 0.18 0.00 87 1008.5
20260904081534 44 122 0.0 0.0 0.00 0.18 0.00 86 1008.4
20260904080032 45 128 0.0 0.0 0.00 0.18 0.00 87 1008.4
20260904074532 44 143 0.0 0.0 0.00 0.22 0.00 88 1008.5
20260904073034 44 120 0.0 0.0 0.00 0.22 0.00 87 1008.4
20260904071525 45 107 0.0 0.0 0.00 0.22 0.00 87 1008.3
20260904070037 45 112 0.0 0.0 0.00 0.22 0.00 86 1008.1
20260904064521 45 120 0.0 0.0 0.00 0.32 0.22 87 1008.2
20260904063021 45 148 0.0 0.0 0.00 0.32 0.22 87 1008.1
20260904061527 45 122 0.0 0.0 0.00 0.32 0.22 87 1008.2
20260904060024 45 120 0.0 0.0 0.00 0.32 0.22 87 1008.2
20260904054523 45 116 0.0 0.0 0.00 0.34 0.22 86 1008.1
20260904053033 45 111 0.0 0.0 0.00 0.34 0.22 87 1008.2
20260904051518 45 175 0.0 0.0 0.00 0.34 0.22 87 1008.2
20260904050029 45 134 0.0 0.0 0.01 0.34 0.22 87 1008.3
20260904044520 45 122 0.0 0.0 0.02 0.34 0.22 87 1008.1
20260904043015 45 109 0.0 0.0 0.03 0.34 0.22 86 1007.9
20260904041515 45 136 0.0 0.0 0.04 0.34 0.22 86 1008.2
20260904040013 45 159 0.0 0.0 0.04 0.33 0.21 88 1008.1
20260904034513 45 101 0.0 0.0 0.04 0.32 0.20 89 1008.3
20260904033011 45 75 0.0 0.0 0.05 0.31 0.19 90 1008.3
20260904031510 45 160 0.0 0.0 0.06 0.30 0.18 90 1008.2
20260904030008 46 127 0.0 0.0 0.06 0.28 0.17 89 1008.7
20260904024507 47 146 0.0 0.0 0.06 0.28 0.16 89 1008.5
20260904023005 47 135 0.0 0.0 0.04 0.26 0.14 87 1008.3
20260904021506 48 124 0.0 0.0 0.02 0.24 0.12 84 1008.2
20260904020004 49 159 0.0 0.0 0.01 0.23 0.11 79 1008.0
20260904014503 51 159 0.0 0.0 0.00 0.22 0.10 72 1007.9
20260904013002 52 274 0.0 0.0 0.00 0.22 0.10 64 1007.9
20260904011502 53 321 0.0 0.0 0.00 0.22 0.10 58 1007.8
20260904010107 53 144 0.0 0.0 0.00 0.22 0.10 68 1007.7
20260904004600 53 40 0.0 0.0 0.00 0.22 0.10 70 1007.2
20260904003059 54 38 0.0 0.0 0.00 0.22 0.10 69 1007.4
20260904001606 54 161 0.0 0.0 0.00 0.22 0.10 68 1007.5
20260904000114 55 123 0.0 0.0 0.00 0.22 0.10 68 1007.3
20260903234556 55 194 0.0 0.0 0.00 0.22 0.10 66 1007.6
20260903233119 55 61 0.0 0.0 0.00 0.22 0.10 66 1007.7
20260903231556 56 321 0.0 0.0 0.00 0.22 0.10 64 1007.7
20260903230109 56 63 0.0 0.0 0.00 0.22 0.10 63 1007.6
20260903224623 57 309 0.0 0.0 0.00 0.22 0.10 59 1007.9
20260903223130 56 46 0.0 0.0 0.00 0.22 0.10 61 1007.7
20260903221553 56 325 0.0 0.0 0.00 0.22 0.10 59 1008.0
20260903220051 57 217 0.0 0.0 0.00 0.22 0.10 59 1007.9
20260903214556 57 229 0.0 0.0 0.00 0.22 0.10 59 1008.2
20260903213106 56 204 0.0 0.0 0.00 0.22 0.10 58 1008.4
20260903211549 56 264 0.0 0.0 0.00 0.22 0.10 60 1008.0
20260903210111 56 259 0.0 0.0 0.00 0.22 0.10 59 1008.5
20260903204545 56 237 0.0 0.0 0.00 0.22 0.10 63 1008.6
20260903203042 55 307 0.0 0.0 0.00 0.22 0.10 65 1008.5
20260903201541 55 319 0.0 0.0 0.00 0.22 0.10 65 1008.6
20260903200036 55 313 0.0 0.0 0.00 0.22 0.10 64 1008.6
20260903194542 56 304 0.0 0.0 0.00 0.22 0.10 64 1008.6